Regional Weather Roundup
Issued by NWS

Home | Current Version | Previous Version | Text Only | Print | Product List | Glossary Off
Versions: 1 2 3 4 5 6 7 8 9 10 11 12 13 14 15 16 17 18 19 20 21 22 23 24 25 26 27 28 29 30 31 32 33 34 35 36 37 38 39 40 41 42 43 44 45 46 47 48 49 50

000
ASUS43 KDMX 271407
RWRIA

WEATHER ROUNDUP FOR IOWA
NATIONAL WEATHER SERVICE DES MOINES IA
800 AM CST FRI FEB 27 2015

NOTE: "FAIR" INDICATES FEW OR NO CLOUDS BELOW 12,000 FEET WITH NO
SIGNIFICANT WEATHER AND/OR OBSTRUCTIONS TO VISIBILITY.

* - THESE STATIONS ARE NOT NWS STATIONS...THUS NOT UNDER NWS
QUALITY CONTROL.  THEY ALSO DO NOT REPORT WEATHER SUCH
AS PRECIPITATION OR FOG.

IAZ001>003-012>014-020>022-031>034-043>046-271500-
   NORTHWEST IOWA

CITY           SKY/WX    TMP DP  RH WIND       PRES   REMARKS
CARROLL *      SUNNY     -8 -15  71 W9        30.58S WCI -25
CHEROKEE *     PTCLDY   -18 -24  76 CALM      30.58S
DENISON *      MOCLDY   -15 -20  76 CALM      30.57S
LE MARS *      CLEAR    -11 -17  77 CALM      30.59S
ORANGE CITY *  CLEAR     -8 -15  71 CALM      30.54R
SHELDON *      CLEAR    -13 -20  70 CALM      30.54R
SIOUX CITY     CLEAR     -4  -9  79 NW5       30.60S WCI -15
SPENCER        CLEAR    -13 -17  82 W3        30.55S
STORM LAKE *   CLEAR     -9 -15  77 NW10      30.55R WCI -28
$$

IAZ055>058-069>071-079>083-090>094-271500-
   SOUTHWEST IOWA

CITY           SKY/WX    TMP DP  RH WIND       PRES   REMARKS
ATLANTIC *     SUNNY     -6 -13  71 CALM      30.61R
AUDUBON *      SUNNY    -11 -17  77 CALM      30.58R
CLARINDA *     SUNNY     -2  -6  84 CALM      30.65S
COUNCIL BLFS * CLEAR      0  -4  85 CALM      30.59R
CRESTON *      SUNNY     -6 -11  77 NW5       30.59R WCI -17
HARLAN  *      SUNNY     -9 -15  77 CALM      30.64R
LAMONI         SUNNY     -3  -9  75 W5        30.61R WCI -13
RED OAK *      SUNNY     -2  -8  78 CALM      30.64R
SHENANDOAH *   SUNNY     -4  -9  77 CALM      30.64S
$$

IAZ047>049-059>061-072>074-084-271500-
   CENTRAL IOWA

CITY           SKY/WX    TMP DP  RH WIND       PRES   REMARKS
AMES             N/A     -9 -14  78 NW6       30.60R WCI -22
ANKENY *       SUNNY     -6 -13  71 W5        30.63R WCI -17
CHARITON *     SUNNY     -6 -11  77 W6        30.61R WCI -18
DES MOINES     SUNNY     -4 -11  72 NW3       30.62R
GRINNELL*      MOSUNNY  -13 -17  84 NW6       30.59R WCI -27
KNOXVILLE *    SUNNY     -8 -15  71 W6        30.61R WCI -21
MARSHALLTOWN   MOSUNNY  -15 -19  82 W6        30.59R WCI -29
PELLA *        MOSUNNY   -6  -8  92 NW6       30.63R WCI -18
PERRY *          N/A     -8 -11  84 W6        30.61R WCI -21
$$

IAZ004>006-015-016-023>025-035-036-271500-
   NORTH CENTRAL IOWA

CITY           SKY/WX    TMP DP  RH WIND       PRES   REMARKS
ALGONA *       SUNNY     -9 -15  77 W8        30.56R WCI -26
CLARION *      SUNNY    -18 -26  69 CALM      30.58R
ESTHERVILLE    PTCLDY   -12 -15  86 W5        30.54R WCI -24
FORT DODGE *   MOSUNNY   -9 -15  77 NW5       30.59R WCI -21
MASON CITY     MOSUNNY  -14 -19  79 W6        30.56R WCI -28
FOREST CITY *  SUNNY    -17 -24  70 CALM      30.55R
IOWA FALLS *     N/A    -15 -20  76 NW3       30.58R
$$

IAZ007>011-017>019-026>030-037>042-050>054-066-271500-
   NORTHEAST IOWA

CITY           SKY/WX    TMP DP  RH WIND       PRES   REMARKS
CEDAR RAPIDS   MOSUNNY  -18 -20  91 W3        30.59R FOG
CHARLES CITY * SUNNY    -17 -24  70 NW7       30.56R WCI -33
CLINTON *      PTSUNNY  -18 -24  76 CALM      30.61R
DECORAH *      SUNNY    -11 -17  77 CALM      30.53R
DUBUQUE        MOSUNNY  -20 -22  90 SW6       30.55R WCI -35
MONTICELLO *   SUNNY    -20 -27  69 CALM      30.59R
OELWEIN *      SUNNY    -18 -27  63 NW6       30.57R WCI -33
WATERLOO       MOSUNNY  -21 -24  86 CALM      30.59R
$$

IAZ064-065-067-068-078-271500-
   EAST CENTRAL IOWA

CITY           SKY/WX    TMP DP  RH WIND       PRES   REMARKS
DAVENPORT      PTSUNNY  -16 -19  87 CALM      30.61R
IOWA CITY      MOSUNNY   -9 -13  83 NW5       30.64R WCI -20
MT. PLEASANT * MOSUNNY   -9 -13  84 NW6       30.63R WCI -23
MUSCATINE *    SUNNY     -9 -15  77 NW5       30.66R WCI -21
QUAD CITIES    PTSUNNY   -9 -13  83 W8        30.62R WCI -25
$$

IAZ062-063-075>077-085>089-095>099-271500-
   SOUTHEAST IOWA

CITY           SKY/WX    TMP DP  RH WIND       PRES   REMARKS
BURLINGTON     PTSUNNY   -8 -12  83 NW5       30.61R WCI -19
FAIRFIELD *    SUNNY     -9 -17  70 NW7       30.63R WCI -24
FORT MADISON * SUNNY     -8 -11  84 NW6       30.63R WCI -21
KEOKUK *       SUNNY     -6  -9  84 NW3       30.64R
OSKALOOSA *      N/A     -9 -13  84 W8        30.63R WCI -26
CENTERVILLE *  SUNNY     -4  -8  84 W5        30.63R WCI -15
OTTUMWA        MOSUNNY   -6 -11  79 NW6       30.61R WCI -19
WASHINGTON *   SUNNY     -9 -13  84 W6        30.63R WCI -23
$$

ABBREVIATIONS USED IN REMARKS
   TC - TEMPERATURES IN CELSIUS
  WCI - WIND CHILL INDEX
   HX - HEAT INDEX
  VSB - VISIBILITY
$$



USA.gov is the U.S. government's official web portal to all federal, state and local government web resources and services.